星链-4262 (STARLINK-4262 )

导读

STARLINK-4262是美国太空探索技术公司Starlink星链互联网卫星项目中的一员,于2022年7月7日发射升空,归属美国。该卫星属于星链低轨互联网星座组网卫星,旨在为全球各地提供高速低延迟的宽带互联网服务,是SpaceX大规模卫星组网建设进程中的组成部分,运行在近地轨道。

Basic Information
目录编号:
53015
目录名称:
STARLINK-4262
国际标识:
2022-076AF
轨道中心:
EARTH
卫星名称:
星链-4262
卫星全名:
星链-4262 (STARLINK-4262 )
卫星状态:
在轨 (已飞行1520 天)
发射日期:
2022-07-07 UTC
国别 :
美国 (US)
星等 :
--
Orbit Information
数据来源 国际轨道数据 AOE轨道数据
星历时间 2026-09-04T03:10:29+0800
10小时前
查看轨道信息
2026-08-30T08:00:00+0800
5天前
查看轨道信息
半长轴 6837.85km 6837.851km
偏心率 0.0001219 0.0001171
轨道倾角 53.161° 53.163°
近地点辐角 64.650° 61.518°
升交点赤经 359.717° 22.184°
平近点角 295.462° 37.826°
近地点 458.879km 458.913km
远地点 460.547km 460.515km
周期 93.786分钟 93.786分钟
每日圈数 15.354067 15.354063
Detailed Information
固有亮度:
5
最大亮度:
2.5
卫星平台:
Starlink v1.5
覆盖范围:
全球
运营商:
太空探索技术公司
运营商所在国:
美国
制造商(研发单位):
太空探索技术公司
制造商所在国:
美国
使用方式:
暂无
Satellite Introduction
星链(Starlink)计划是由太空探索技术公司(SpaceX)提出的一个巨型低轨卫星互联网星座项目,计划在2019年至2024年间在太空搭建由约1.2万颗卫星组成的“星链”网络,其中1584颗将部署在地球上空550千米处的近地轨道,并从2020年开始工作。该卫星仍在工作。
2D Orbit Map
3D Orbit Map
Orbit Altitude Analysis Chart
Orbit Inclination Analysis Chart
Orbit Comprehensive Analysis Chart
View Comprehensive Chart
Conjunction Data List
Event ID Objects TCA Miss Dist (km) Collision Risk Probability Collision Risk Index (CRI) Action
CDM_260903-181605-301506-914921
2026-09-03T
18:16:13+0000
2.725 km
极远距离
1.32548E-6 低风险 0.37
CDM_260905-154305-301506-504021
2026-09-05T
15:43:04+0000
2.878 km
极远距离
1.263088E-6 低风险 0.37
CDM_260905-154205-301506-586921
2026-09-05T
15:42:41+0000
2.983 km
极远距离
1.208819E-6 低风险 0.37
CDM_260903-091703-622505-301521
2026-09-03T
09:17:02+0000
2.598 km
极远距离
1.203762E-6 低风险 0.37
CDM_260905-125005-301506-687921
2026-09-05T
12:50:26+0000
2.688 km
极远距离
1.101412E-6 低风险 0.36
CDM_260904-093305-301505-476421
2026-09-04T
09:33:56+0000
2.733 km
极远距离
7.816049E-7 极低风险 0.33